DTA650 FNBJ-LPPT

Flight info

Callsign DTA650
Flight time N/A
Altitude 34000
Route VNA UR526 LIKAD UY339 MESIN UG861 DLA UA604 AKLIS/N0496F360 UA604 MNA/N0483F380 UA604 BAY UB738 LIGUM L195 MGA DCT MAR DCT SVL/N0478F390 DCT PIMUR DCT ONUBA DCT NAPES DCT OSLEP DCT MINTA/N0480F380 DCT VATZI
Aircraft B77W/H-SDE1E2E3FGHIJ2J3J4J5M1RWXY/LB1D1

Departure

Time 2026-04-14 22:46
Airport Dr. Antonio Agostinho Neto International Airport (FNBJ)

Arrival

Time N/A
Airport Lisbon Humberto Delgado Airport (LPPT)
Time Latitude Longitude Altitude Speed Heading
2026-04-14 22:14 -9.05441 13.49965 550 ft 0 kts 323°
2026-04-14 22:34 -9.05451 13.49972 544 ft 3 kts 323°
2026-04-14 22:34 -9.05467 13.49984 545 ft 3 kts 323°
2026-04-14 22:34 -9.05479 13.49993 552 ft 3 kts 320°
2026-04-14 22:35 -9.05491 13.50006 557 ft 3 kts 276°
2026-04-14 22:35 -9.05487 13.50023 555 ft 3 kts 236°
2026-04-14 22:35 -9.05476 13.50038 553 ft 2 kts 232°
2026-04-14 22:35 -9.05474 13.50042 555 ft 0 kts 233°
2026-04-14 22:38 -9.05476 13.50038 544 ft 3 kts 233°
2026-04-14 22:39 -9.05513 13.49989 544 ft 11 kts 233°
2026-04-14 22:39 -9.05560 13.49926 542 ft 11 kts 233°
2026-04-14 22:39 -9.05608 13.49862 544 ft 11 kts 233°
2026-04-14 22:39 -9.05656 13.49798 544 ft 11 kts 233°
2026-04-14 22:40 -9.05710 13.49763 544 ft 10 kts 164°
2026-04-14 22:40 -9.05768 13.49802 546 ft 11 kts 142°
2026-04-14 22:40 -9.05835 13.49854 544 ft 14 kts 143°
2026-04-14 22:40 -9.05921 13.49920 544 ft 17 kts 143°
2026-04-14 22:41 -9.06021 13.49996 544 ft 18 kts 143°
2026-04-14 22:41 -9.06044 13.50058 544 ft 9 kts 62°
2026-04-14 22:41 -9.05987 13.50138 544 ft 23 kts 53°
2026-04-14 22:41 -9.05883 13.50281 544 ft 26 kts 53°
2026-04-14 22:42 -9.05777 13.50427 545 ft 26 kts 53°
2026-04-14 22:42 -9.05669 13.50572 546 ft 26 kts 53°
2026-04-14 22:42 -9.05562 13.50717 547 ft 26 kts 52°
2026-04-14 22:42 -9.05454 13.50862 547 ft 26 kts 53°
2026-04-14 22:43 -9.05347 13.51008 547 ft 26 kts 53°
2026-04-14 22:43 -9.05240 13.51153 546 ft 26 kts 53°
2026-04-14 22:43 -9.05132 13.51298 547 ft 26 kts 53°
2026-04-14 22:43 -9.05025 13.51443 547 ft 26 kts 53°
2026-04-14 22:44 -9.04920 13.51590 549 ft 26 kts 54°
2026-04-14 22:44 -9.04814 13.51735 549 ft 23 kts 53°
2026-04-14 22:44 -9.04821 13.51817 561 ft 13 kts 136°
2026-04-14 22:44 -9.04898 13.51866 558 ft 13 kts 151°
2026-04-14 22:45 -9.04978 13.51887 563 ft 12 kts 200°
2026-04-14 22:45 -9.05031 13.51821 565 ft 12 kts 234°
2026-04-14 22:45 -9.05108 13.51712 564 ft 38 kts 234°
2026-04-14 22:45 -9.05405 13.51285 560 ft 107 kts 235°
2026-04-14 22:46 -9.05954 13.50496 546 ft 165 kts 234°
2026-04-14 22:46 -9.06687 13.49445 772 ft 185 kts 234°
2026-04-14 22:46 -9.07436 13.48373 1259 ft 195 kts 234°
2026-04-14 22:46 -9.07949 13.47119 1725 ft 198 kts 266°
2026-04-14 22:47 -9.07624 13.45782 2229 ft 201 kts 303°
2026-04-14 22:47 -9.06678 13.44663 2450 ft 219 kts 315°
2026-04-14 22:47 -9.05519 13.43547 2658 ft 241 kts 317°
2026-04-14 22:47 -9.04245 13.42350 3050 ft 255 kts 317°
2026-04-14 22:48 -9.02912 13.41104 3551 ft 266 kts 317°
2026-04-14 22:48 -9.01526 13.39815 4132 ft 274 kts 317°
2026-04-14 22:48 -9.00106 13.38500 4814 ft 278 kts 317°
2026-04-14 22:48 -8.98686 13.37189 5515 ft 280 kts 317°
2026-04-14 22:49 -8.97235 13.35855 6206 ft 283 kts 317°
2026-04-14 22:49 -8.95774 13.34515 6870 ft 285 kts 317°
2026-04-14 22:49 -8.94294 13.33157 7508 ft 288 kts 317°
2026-04-14 22:49 -8.92776 13.31811 8133 ft 291 kts 321°
2026-04-14 22:50 -8.91209 13.30545 8786 ft 293 kts 321°
2026-04-14 22:50 -8.89628 13.29227 9426 ft 296 kts 320°
2026-04-14 22:50 -8.88013 13.27807 10085 ft 298 kts 319°
2026-04-14 22:50 -8.86442 13.26390 10485 ft 311 kts 319°
2026-04-14 22:51 -8.84711 13.24947 10617 ft 333 kts 324°
2026-04-14 22:51 -8.82725 13.23637 10734 ft 349 kts 332°
2026-04-14 22:51 -8.80468 13.22541 10886 ft 368 kts 338°
2026-04-14 22:51 -8.74981 13.20432 12057 ft 388 kts 340°
2026-04-14 22:52 -8.64657 13.16374 14858 ft 404 kts 339°
2026-04-14 22:52 -8.54188 13.12003 17348 ft 420 kts 338°
2026-04-14 22:52 -8.42997 13.07321 19562 ft 437 kts 338°
2026-04-14 22:52 -8.31771 13.02638 21664 ft 448 kts 338°
2026-04-14 22:53 -8.21694 12.98437 24320 ft 459 kts 337°
2026-04-14 22:53 -8.14617 12.95485 24102 ft 468 kts 338°
2026-04-14 22:53 -8.02776 12.90553 25505 ft 479 kts 337°
2026-04-14 22:53 -7.90383 12.85393 27020 ft 485 kts 337°
2026-04-14 22:54 -7.77776 12.80147 28314 ft 496 kts 337°
2026-04-14 22:54 -7.65050 12.74855 29346 ft 506 kts 337°
2026-04-14 22:54 -7.51944 12.69409 30320 ft 511 kts 337°
2026-04-14 22:54 -7.39008 12.64035 31555 ft 507 kts 338°
2026-04-14 22:55 -7.28424 12.59642 32525 ft 504 kts 338°
2026-04-14 22:55 -7.25341 12.58363 32843 ft 503 kts 338°
2026-04-14 22:55 -7.22111 12.57022 33198 ft 501 kts 338°
2026-04-14 22:55 -7.18895 12.55689 33549 ft 499 kts 338°
2026-04-14 22:56 -7.15688 12.54360 33835 ft 499 kts 338°
2026-04-14 22:56 -6.94740 12.45677 33944 ft 509 kts 338°
2026-04-14 22:57 -6.68958 12.34993 33883 ft 489 kts 339°
2026-04-14 22:57 -6.43624 12.24504 33958 ft 501 kts 339°
2026-04-14 22:58 -6.17712 12.13788 33919 ft 506 kts 339°
2026-04-14 22:58 -5.92077 12.03197 33890 ft 493 kts 339°
2026-04-14 22:59 -5.66784 11.92757 33961 ft 508 kts 339°
2026-04-14 22:59 -5.40653 11.81982 33897 ft 501 kts 339°
2026-04-14 23:00 -5.15106 11.71515 33895 ft 492 kts 341°
2026-04-14 23:00 -5.09084 11.69980 33871 ft 481 kts 354°
2026-04-14 23:00 -5.05736 11.69766 33929 ft 483 kts
2026-04-14 23:01 -4.95595 11.69673 33922 ft 481 kts 356°
2026-04-14 23:01 -4.78611 11.67912 33951 ft 502 kts 357°
2026-04-14 23:02 -4.50446 11.66029 33908 ft 503 kts 357°
2026-04-14 23:02 -4.22937 11.64133 33909 ft 494 kts 357°
2026-04-14 23:03 -3.95223 11.62247 33969 ft 509 kts 357°
2026-04-14 23:03 -3.67367 11.60342 33924 ft 493 kts 357°
2026-04-14 23:03 -3.53955 11.57727 33945 ft 494 kts 346°
2026-04-14 23:04 -3.40499 11.54151 33984 ft 506 kts 348°
2026-04-14 23:04 -3.12777 11.47443 33933 ft 510 kts 348°
2026-04-14 23:05 -2.85719 11.40857 33929 ft 498 kts 348°
2026-04-14 23:05 -2.58280 11.34185 33981 ft 514 kts 348°
2026-04-14 23:06 -2.30850 11.27525 33887 ft 502 kts 348°
2026-04-14 23:06 -2.03798 11.20961 33958 ft 504 kts 348°
2026-04-14 23:07 -1.76191 11.14260 33960 ft 512 kts 348°
2026-04-14 23:07 -1.48957 11.07640 33912 ft 497 kts 348°
2026-04-14 23:08 -1.21739 11.01024 33980 ft 511 kts 348°
2026-04-14 23:08 -0.94594 10.94420 33901 ft 506 kts 348°
2026-04-14 23:09 -0.67514 10.87840 33945 ft 502 kts 348°
2026-04-14 23:09 -0.40068 10.81193 33963 ft 516 kts 348°
2026-04-14 23:10 -0.12547 10.74522 33883 ft 501 kts 348°
2026-04-14 23:10 0.14572 10.67933 33956 ft 510 kts 348°
2026-04-14 23:11 0.42403 10.61152 33931 ft 511 kts 348°
2026-04-14 23:11 0.69583 10.54535 33913 ft 498 kts 348°
2026-04-14 23:12 0.96833 10.47904 33994 ft 516 kts 348°
2026-04-14 23:12 1.24669 10.41150 33910 ft 507 kts 348°
2026-04-14 23:13 1.51954 10.34534 33974 ft 509 kts 348°
2026-04-14 23:13 1.79797 10.27774 33958 ft 516 kts 348°
2026-04-14 23:14 2.07172 10.21117 33889 ft 498 kts 349°
2026-04-14 23:14 2.34497 10.14477 33954 ft 513 kts 349°
2026-04-14 23:15 2.62067 10.07765 33879 ft 506 kts 349°
2026-04-14 23:15 2.89071 10.01195 33912 ft 500 kts 349°
2026-04-14 23:16 3.11369 9.95768 33940 ft 512 kts 349°
2026-04-14 23:16 3.38781 9.89083 33852 ft 498 kts 349°
2026-04-14 23:17 3.65721 9.82520 33921 ft 505 kts 348°
2026-04-14 23:17 3.93341 9.75779 33900 ft 508 kts 348°
2026-04-14 23:18 4.33145 9.62423 33934 ft 513 kts 342°
2026-04-14 23:18 4.60315 9.54096 33879 ft 502 kts 351°
2026-04-14 23:19 4.87515 9.48478 33951 ft 502 kts 349°
2026-04-14 23:19 5.15044 9.42487 33955 ft 513 kts 349°
2026-04-14 23:20 5.42538 9.36509 33876 ft 499 kts 348°
2026-04-14 23:20 5.69981 9.30541 33941 ft 513 kts 349°
2026-04-14 23:21 5.98368 9.27192 33881 ft 507 kts 354°
2026-04-14 23:21 6.23039 9.24443 33833 ft 498 kts 357°
2026-04-14 23:22 6.38435 9.23580 33922 ft 514 kts 357°
2026-04-14 23:22 6.66472 9.21719 33836 ft 496 kts 356°
2026-04-14 23:23 6.93942 9.19896 33889 ft 501 kts 355°
2026-04-14 23:23 7.22033 9.17231 33863 ft 504 kts 350°
2026-04-14 23:24 7.49406 9.13437 33836 ft 493 kts 351°
2026-04-14 23:24 7.77146 9.09690 33888 ft 511 kts 351°
2026-04-14 23:25 8.04865 9.05942 33801 ft 498 kts 351°
2026-04-14 23:25 8.21059 9.03885 33892 ft 501 kts 352°
2026-04-14 23:26 8.41059 9.01416 33922 ft 512 kts 352°
2026-04-14 23:26 8.64905 8.98124 33848 ft 500 kts 351°
2026-04-14 23:27 8.85627 8.95246 33880 ft 500 kts 351°
2026-04-14 23:27 9.01505 8.93037 33926 ft 511 kts 351°
2026-04-14 23:28 9.17362 8.90833 33898 ft 502 kts 350°
2026-04-14 23:28 9.44924 8.86990 33959 ft 504 kts 350°
2026-04-14 23:29 9.61141 8.84727 33940 ft 515 kts 350°
2026-04-14 23:29 9.70597 8.83500 34058 ft 502 kts 352°
2026-04-14 23:29 9.74081 8.83114 34020 ft 505 kts 352°
2026-04-14 23:30 9.83646 8.82083 33935 ft 514 kts 352°
2026-04-14 23:30 10.09535 8.79147 33914 ft 513 kts 352°
2026-04-14 23:31 10.37885 8.75917 33902 ft 512 kts 352°
2026-04-14 23:31 10.66169 8.72688 33885 ft 510 kts 352°
2026-04-14 23:32 10.94337 8.69263 33856 ft 509 kts 348°
2026-04-14 23:32 11.21999 8.64175 33888 ft 509 kts 348°
2026-04-14 23:33 11.49946 8.59205 33839 ft 509 kts 348°
2026-04-14 23:33 11.77872 8.54211 33831 ft 510 kts 348°
2026-04-14 23:34 12.05879 8.49271 33830 ft 512 kts 350°
2026-04-14 23:34 12.34282 8.46620 33840 ft 512 kts 352°
2026-04-14 23:35 12.62625 8.43820 33820 ft 511 kts 352°
2026-04-14 23:35 12.90854 8.41036 33818 ft 509 kts 352°
2026-04-14 23:36 13.18864 8.38296 33811 ft 509 kts 352°
2026-04-14 23:36 13.47140 8.35652 33811 ft 510 kts 351°
2026-04-14 23:37 13.75442 8.32978 33816 ft 511 kts 351°
2026-04-14 23:37 14.03734 8.30317 33789 ft 510 kts 351°
2026-04-14 23:38 14.32050 8.27646 33781 ft 510 kts 351°
2026-04-14 23:38 14.60123 8.24991 33779 ft 509 kts 351°
2026-04-14 23:39 14.88371 8.22314 33792 ft 509 kts 350°
2026-04-14 23:39 15.16601 8.19633 33799 ft 509 kts 350°
2026-04-14 23:40 15.44866 8.16946 33785 ft 509 kts 350°
2026-04-14 23:40 15.73155 8.14248 33798 ft 511 kts 350°
2026-04-14 23:41 16.01334 8.11555 33786 ft 512 kts 349°
2026-04-14 23:41 16.29737 8.08830 33790 ft 513 kts 349°
2026-04-14 23:42 16.58180 8.06096 33788 ft 513 kts 349°
2026-04-14 23:42 16.86739 8.03340 33797 ft 515 kts 349°
2026-04-14 23:43 17.00730 8.01216 33716 ft 492 kts 335°
2026-04-14 23:43 17.05341 7.98976 33795 ft 487 kts 325°
2026-04-14 23:43 17.25908 7.89618 33879 ft 505 kts 332°
2026-04-14 23:44 17.51630 7.78180 33825 ft 492 kts 330°
2026-04-14 23:44 17.70016 7.69957 33846 ft 480 kts 329°
2026-04-14 23:45 17.89740 7.61091 33801 ft 486 kts 329°
2026-04-14 23:45 18.14650 7.49893 33752 ft 485 kts 329°
2026-04-14 23:46 18.32111 7.42017 33784 ft 475 kts 329°
2026-04-14 23:46 18.41021 7.37982 34044 ft 482 kts 329°
2026-04-14 23:46 18.46354 7.35570 34567 ft 480 kts 329°
2026-04-14 23:47 18.49409 7.34191 34925 ft 477 kts 329°
2026-04-14 23:47 18.52456 7.32815 35296 ft 474 kts 329°
2026-04-14 23:47 18.55486 7.31445 35622 ft 473 kts 328°
2026-04-14 23:47 18.60173 7.29318 35705 ft 477 kts 328°
2026-04-14 23:48 18.84861 7.18109 35773 ft 479 kts 328°
2026-04-14 23:48 19.08843 7.07201 35779 ft 465 kts 328°
2026-04-14 23:49 19.27124 6.98844 35798 ft 481 kts 328°
2026-04-14 23:49 19.45073 6.90653 35802 ft 475 kts 328°
2026-04-14 23:50 19.54461 6.86363 35844 ft 459 kts 327°
2026-04-14 23:50 19.66292 6.80917 35780 ft 460 kts 327°
2026-04-14 23:50 19.89940 6.70037 35831 ft 473 kts 327°
2026-04-14 23:51 20.13840 6.59040 35776 ft 460 kts 327°
2026-04-14 23:51 20.33722 6.50735 35830 ft 463 kts 328°
2026-04-14 23:52 20.57936 6.40517 35811 ft 465 kts 328°
2026-04-14 23:52 20.81577 6.30509 35820 ft 450 kts 327°
2026-04-14 23:53 21.04774 6.20630 35876 ft 463 kts 328°
2026-04-14 23:53 21.21641 6.13456 35900 ft 460 kts 328°
2026-04-14 23:54 21.30160 6.09823 35858 ft 453 kts 328°
2026-04-14 23:54 21.46676 6.02739 36959 ft 455 kts 332°
2026-04-14 23:55 21.49615 6.01481 35784 ft 453 kts 328°
2026-04-14 23:55 21.56618 5.98484 35816 ft 459 kts 328°
2026-04-14 23:55 21.80548 5.88203 35870 ft 461 kts 328°
2026-04-14 23:56 21.92329 5.83134 35820 ft 450 kts 327°
2026-04-14 23:56 22.03807 5.78175 35884 ft 444 kts 327°
2026-04-14 23:56 22.26811 5.68203 35923 ft 455 kts 327°
2026-04-14 23:57 22.50229 5.58053 35891 ft 440 kts 327°
2026-04-14 23:57 22.72603 5.48282 36144 ft 435 kts 326°
2026-04-14 23:58 22.84077 5.43509 36113 ft 450 kts 330°
2026-04-14 23:58 22.96221 5.39646 36059 ft 455 kts 332°
2026-04-14 23:58 23.20000 5.31981 35901 ft 439 kts 330°
2026-04-14 23:59 23.43514 5.24282 36019 ft 449 kts 330°
2026-04-14 23:59 23.67482 5.16435 36023 ft 450 kts 330°
2026-04-15 00:00 23.91016 5.08707 35927 ft 432 kts 329°
2026-04-15 00:00 24.14189 5.01020 36035 ft 445 kts 330°
2026-04-15 00:01 24.37674 4.93257 35966 ft 446 kts 331°
2026-04-15 00:01 24.61085 4.85468 35986 ft 439 kts 330°
2026-04-15 00:02 24.84719 4.77557 36054 ft 451 kts 331°
2026-04-15 00:02 25.02431 4.71630 35998 ft 449 kts 331°
2026-04-15 00:03 25.25981 4.63708 36088 ft 442 kts 332°
2026-04-15 00:03 25.46843 4.56652 36117 ft 452 kts 332°
2026-04-15 00:04 25.57498 4.53072 36076 ft 432 kts 332°
2026-04-15 00:04 25.80435 4.45250 36093 ft 439 kts 332°
2026-04-15 00:05 26.04207 4.37151 36060 ft 448 kts 333°
2026-04-15 00:05 26.15991 4.33135 36037 ft 437 kts 332°
2026-04-15 00:05 26.27528 4.29173 36056 ft 431 kts 333°
2026-04-15 00:06 26.50718 4.21180 36151 ft 444 kts 333°
2026-04-15 00:06 26.74542 4.12965 36058 ft 444 kts 334°
2026-04-15 00:07 26.97717 4.04925 36057 ft 432 kts 334°
2026-04-15 00:07 27.20478 3.96978 36152 ft 447 kts 335°
2026-04-15 00:08 27.44118 3.88728 36104 ft 436 kts 335°
2026-04-15 00:08 27.66971 3.80686 36102 ft 430 kts 336°
2026-04-15 00:09 27.90249 3.72464 36130 ft 443 kts 336°
2026-04-15 00:09 28.13459 3.64241 36072 ft 428 kts 336°
2026-04-15 00:10 28.36029 3.56192 36188 ft 428 kts 337°
2026-04-15 00:10 28.58999 3.48340 36118 ft 434 kts 339°
2026-04-15 00:11 28.59993 3.48043 36115 ft 434 kts 339°
2026-04-15 00:12 28.62538 3.47277 36007 ft 434 kts 339°
2026-04-15 00:12 28.65339 3.46337 36076 ft 407 kts 332°
2026-04-15 00:13 28.70713 3.44540 36114 ft 410 kts 344°
2026-04-15 00:13 28.78034 3.43025 36069 ft 421 kts 342°
2026-04-15 00:14 28.89466 3.39303 36125 ft 432 kts 337°
2026-04-15 00:14 29.01036 3.35339 36135 ft 434 kts 339°
2026-04-15 00:14 29.12573 3.31743 36067 ft 422 kts 339°
2026-04-15 00:14 29.23763 3.28242 36112 ft 414 kts 339°
2026-04-15 00:15 29.46279 3.21148 36139 ft 429 kts 340°
2026-04-15 00:17 29.50277 3.19888 36152 ft 432 kts 340°
2026-04-15 00:18 29.57899 3.17482 36102 ft 433 kts 340°
2026-04-15 00:19 29.66887 3.14644 36063 ft 428 kts 340°
2026-04-15 00:19 29.72797 3.12736 34055 ft 445 kts 336°
2026-04-15 00:19 29.75402 3.11706 34164 ft 429 kts 337°
2026-04-15 00:20 29.81496 3.09574 34561 ft 428 kts 340°